EST,Max TemperatureF,Mean TemperatureF,Min TemperatureF,Max Dew PointF,MeanDew PointF,Min DewpointF,Max Humidity, Mean Humidity, Min Humidity, Max Sea Level PressureIn, Mean Sea Level PressureIn, Min Sea Level PressureIn, Max VisibilityMiles, Mean VisibilityMiles, Min VisibilityMiles, Max Wind SpeedMPH, Mean Wind SpeedMPH, Max Gust SpeedMPH,PrecipitationIn, CloudCover, Events, WindDirDegrees
2011-11-1,55,44,33,32,30,23,87,59,31,30.32,30.26,30.20,10,10,10,6,1,,0.00,0,,360
2011-11-2,59,46,32,34,32,30,93,63,36,30.39,30.33,30.28,10,10,10,8,2,,0.00,0,,152
2011-11-3,55,46,37,43,33,28,93,62,41,30.27,30.10,29.92,10,10,4,10,2,17,0.12,1,Rain,156
2011-11-4,51,46,42,43,39,34,100,76,54,30.14,29.93,29.79,10,9,0,20,7,31,0.08,5,Fog-Rain,360
2011-11-5,48,40,32,32,25,18,87,58,34,30.38,30.27,30.13,10,10,10,9,4,,0.00,0,,105
2011-11-6,53,42,32,36,30,21,93,70,50,30.45,30.39,30.36,10,10,10,9,1,,0.00,3,,159
2011-11-7,62,47,32,39,36,32,100,71,32,30.41,30.36,30.32,10,8,0,6,1,,0.00,1,Fog,153
2011-11-8,60,46,33,41,37,32,100,69,42,30.32,30.26,30.21,10,9,0,7,1,,0.00,0,Fog,151
2011-11-9,59,48,37,46,42,36,100,78,55,30.20,30.11,30.02,10,10,3,9,1,,0.00,2,Rain,159
2011-11-10,51,43,35,50,36,21,94,78,56,30.00,29.93,29.86,10,9,4,18,5,33,0.00,7,Rain,322
2011-11-11,41,34,28,18,15,12,60,47,31,30.11,30.01,29.91,10,10,10,23,13,39,0.00,2,Snow,307
2011-11-12,59,48,37,23,20,12,45,34,18,30.23,30.18,30.11,10,10,10,22,11,28,0.00,0,,254
2011-11-13,53,46,39,41,26,21,81,48,30,30.19,30.14,30.07,10,10,10,7,3,,0.00,0,,164
2011-11-14,68,56,44,50,45,43,93,70,40,30.11,30.06,30.00,10,10,10,15,3,25,0.00,2,,179
2011-11-15,64,58,53,54,52,50,94,79,59,30.03,30.00,29.97,10,10,3,13,3,22,0.00,8,Rain,203
2011-11-16,62,54,46,59,53,43,100,90,82,29.99,29.88,29.77,10,7,0,13,3,25,0.28,8,Fog-Rain,170
2011-11-17,44,37,30,41,28,9,100,75,38,30.17,30.00,29.89,10,9,1,24,10,39,0.05,6,Rain-Snow,334
2011-11-18,41,34,26,18,10,3,64,41,24,30.41,30.34,30.20,10,10,10,16,6,28,0.00,0,,168
2011-11-19,53,40,26,39,25,9,81,56,38,30.36,30.32,30.28,10,10,10,8,3,16,0.00,1,,172
2011-11-20,64,53,42,52,47,39,100,79,52,30.33,30.29,30.25,10,10,5,10,3,,0.00,2,Rain,150
2011-11-21,60,56,51,52,50,46,88,78,67,30.31,30.26,30.22,10,10,10,20,10,31,0.00,7,Rain,293
2011-11-22,60,56,51,55,51,46,100,82,72,30.24,30.12,29.93,10,9,2,10,2,20,0.09,7,Rain,169
2011-11-23,57,49,41,52,40,32,88,75,66,30.06,29.92,29.82,10,9,4,30,18,46,0.10,6,Rain,307
2011-11-24,60,48,35,30,26,16,81,49,23,30.36,30.30,30.17,10,10,10,10,4,16,0.00,0,,302
2011-11-25,64,48,33,32,19,9,70,35,14,30.36,30.31,30.27,10,10,10,6,1,,0.00,0,,200
2011-11-26,59,47,35,43,25,9,82,45,23,30.33,30.27,30.23,10,10,10,7,2,,0.00,0,,156
2011-11-27,59,54,50,50,45,43,94,77,59,30.19,30.11,30.03,10,10,5,13,7,25,0.01,7,Rain,169
2011-11-28,55,53,51,54,51,50,100,95,94,30.01,29.92,29.75,10,4,0,17,10,29,1.80,8,Fog-Rain,152
2011-11-29,44,38,32,45,33,27,100,92,80,29.76,29.71,29.67,10,8,1,17,5,28,0.16,7,Rain-Snow,179
2011-11-30,33,32,30,30,27,21,87,80,64,30.07,29.89,29.73,10,8,2,24,11,44,0.00,6,Snow,302